FW8044 Weather Reports


time (UTC)temp
F
wind
direction
speed
knots
gust
knots
rain 1hr
in
rain 24hr
in
rain mn
in
humidity
%
barometer
mb
20260504174843 82 279 6.1 8.7 0.00 0.00 0.00 27 1001.1
20260504174341 82 191 4.3 11.3 0.00 0.00 0.00 28 1001.1
20260504173837 82 247 4.3 7.0 0.00 0.00 0.00 29 1001.0
20260504173334 82 236 2.6 5.2 0.00 0.00 0.00 31 1001.0
20260504172831 82 254 4.3 7.0 0.00 0.00 0.00 31 1001.2
20260504172328 82 206 3.5 8.7 0.00 0.00 0.00 33 1001.4
20260504171824 81 212 1.7 5.2 0.00 0.00 0.00 32 1001.4
20260504171321 81 210 1.7 7.8 0.00 0.00 0.00 32 1001.3
20260504170818 80 266 1.7 9.6 0.00 0.00 0.00 35 1001.2
20260504170315 81 267 3.5 7.0 0.00 0.00 0.00 32 1001.2
20260504160233 77 242 1.7 1.7 0.00 0.00 0.00 42 1001.7
20260504150659 71 243 0.9 4.3 0.00 0.00 0.00 48 1002.2
20260504150155 71 285 0.9 1.7 0.00 0.00 0.00 48 1002.0
20260504141124 64 250 2.6 5.2 0.00 0.00 0.00 54 1002.6
20260504140621 63 214 1.7 6.1 0.00 0.00 0.00 55 1002.4
20260504140117 63 235 2.6 7.8 0.00 0.00 0.00 55 1002.6
20260504130545 57 244 0.0 0.9 0.00 0.00 0.00 61 1003.0
20260504110433 50 223 0.9 0.9 0.00 0.00 0.00 66 1003.5
20260504100349 52 225 0.9 1.7 0.00 0.00 0.00 62 1004.0
20260504081743 54 236 0.9 1.7 0.00 0.00 0.00 56 1005.2
20260504081239 54 225 1.7 2.6 0.00 0.00 0.00 56 1005.2
20260504080735 54 216 1.7 1.7 0.00 0.00 0.00 56 1005.1
20260504080232 54 229 1.7 2.6 0.00 0.00 0.00 55 1005.1
20260504070159 56 226 1.7 1.7 0.00 0.00 0.00 49 1006.1
20260504060120 56 244 0.0 0.9 0.00 0.00 0.00 49 1006.9
20260504050548 59 247 0.9 0.9 0.00 0.00 0.00 41 1007.4
20260504045542 58 252 1.7 2.6 0.00 0.00 0.00 42 1007.3
20260504045037 58 245 0.9 0.9 0.00 0.00 0.00 44 1007.3
20260504044535 58 245 0.0 0.9 0.00 0.00 0.00 42 1007.4
20260504044032 58 244 0.0 0.9 0.00 0.00 0.00 42 1007.5
20260504043529 59 235 0.0 0.9 0.00 0.00 0.00 43 1007.5
20260504043026 59 246 0.0 0.9 0.00 0.00 0.00 41 1007.6
20260504042523 58 220 0.9 1.7 0.00 0.00 0.00 41 1007.4
20260504042020 58 238 0.9 1.7 0.00 0.00 0.00 42 1007.9
20260504041516 58 246 0.0 1.7 0.00 0.00 0.00 42 1007.7
20260504041012 58 234 0.9 1.7 0.00 0.00 0.00 41 1007.6
20260504040510 58 236 0.0 0.9 0.00 0.00 0.00 40 1007.6
20260504040006 59 237 0.0 0.9 0.00 0.00 0.00 39 1007.7
20260504035503 60 227 0.0 0.9 0.00 0.00 0.00 38 1008.1
20260504034959 62 226 0.0 0.9 0.00 0.00 0.00 35 1008.0
20260504034457 62 217 0.9 1.7 0.00 0.00 0.00 33 1008.1
20260504033954 63 235 0.9 0.9 0.00 0.00 0.00 33 1008.0
20260504033452 63 240 0.9 1.7 0.00 0.00 0.00 32 1008.2
20260504032949 63 242 0.0 0.9 0.00 0.00 0.00 32 1008.2
20260504032445 62 239 0.0 1.7 0.00 0.00 0.00 32 1008.5
20260504031942 63 233 0.0 0.9 0.00 0.00 0.00 33 1008.4
20260504031439 63 243 0.0 0.0 0.00 0.00 0.00 32 1008.6
20260504030936 63 243 0.0 0.9 0.00 0.00 0.00 32 1008.4
20260504030433 63 243 0.0 0.9 0.00 0.00 0.00 32 1008.6
20260504025929 63 246 0.0 0.9 0.00 0.00 0.00 32 1008.6
20260504025426 63 241 0.0 1.7 0.00 0.00 0.00 31 1008.5
20260504024923 63 256 0.0 0.9 0.00 0.00 0.00 31 1008.6
20260504024420 63 239 0.0 0.9 0.00 0.00 0.00 31 1008.5
20260504023917 64 239 0.0 0.9 0.00 0.00 0.00 32 1008.5
20260504023413 63 242 0.0 0.9 0.00 0.00 0.00 32 1008.5
20260504022909 63 240 0.0 0.9 0.00 0.00 0.00 32 1008.6
20260504022406 64 243 0.9 0.9 0.00 0.00 0.00 31 1008.2
20260504021902 64 250 0.9 1.7 0.00 0.00 0.00 31 1008.3
20260504021400 64 236 0.0 0.0 0.00 0.00 0.00 29 1008.5
20260504020857 64 236 0.0 0.0 0.00 0.00 0.00 29 1008.3
20260504020353 64 246 0.0 0.0 0.00 0.00 0.00 29 1008.4
20260504015849 64 241 0.0 0.0 0.00 0.00 0.00 29 1008.3
20260504015345 64 239 0.0 0.0 0.00 0.00 0.00 29 1008.1
20260504014842 64 244 0.0 0.0 0.00 0.00 0.00 30 1008.2
20260504014338 65 239 0.0 0.0 0.00 0.00 0.00 29 1008.2
20260504013836 65 238 0.0 0.0 0.00 0.00 0.00 29 1008.3
20260504013333 66 236 0.0 0.9 0.00 0.00 0.00 28 1008.2
20260504012830 66 239 0.0 0.0 0.00 0.00 0.00 29 1008.1
20260504012328 65 237 0.0 0.9 0.00 0.00 0.00 29 1008.2
20260504011825 66 241 0.0 0.0 0.00 0.00 0.00 28 1008.2
20260504011321 67 241 0.0 0.9 0.00 0.00 0.00 28 1008.3
20260504010817 68 240 0.0 0.0 0.00 0.00 0.00 27 1008.1
20260504010313 68 240 0.0 0.0 0.00 0.00 0.00 27 1008.3
20260504005810 69 243 0.0 0.9 0.00 0.00 0.00 27 1008.3
20260504005307 70 235 0.0 0.0 0.00 0.00 0.00 27 1008.3
20260504004804 71 237 0.9 0.9 0.00 0.00 0.00 25 1008.3
20260504004302 72 244 0.0 0.9 0.00 0.00 0.00 25 1008.2
20260504003758 73 203 0.0 0.9 0.00 0.00 0.00 24 1008.4
20260504003255 73 243 0.0 0.0 0.00 0.00 0.00 24 1008.3
20260504002751 74 247 0.0 0.0 0.00 0.00 0.00 24 1008.4
20260504002249 74 243 0.9 2.6 0.00 0.00 0.00 23 1008.3
20260504001746 73 247 0.0 0.9 0.00 0.00 0.00 24 1008.2
20260504001243 74 234 0.0 2.6 0.00 0.00 0.00 24 1008.4
20260504000740 74 252 0.0 0.9 0.00 0.00 0.00 24 1008.4
20260504000237 75 286 0.0 1.7 0.00 0.00 0.00 23 1008.3
20260503235735 75 240 0.9 2.6 0.00 0.00 0.00 21 1008.4
20260503235232 76 258 0.9 2.6 0.00 0.00 0.00 22 1008.3
20260503234730 76 257 0.9 1.7 0.00 0.00 0.00 22 1008.4
20260503234227 76 224 0.9 4.3 0.00 0.00 0.00 21 1008.3
20260503233724 76 251 0.0 0.9 0.00 0.00 0.00 22 1008.4
20260503233220 75 254 0.9 2.6 0.00 0.00 0.00 21 1008.2
20260503232717 76 349 2.6 4.3 0.00 0.00 0.00 20 1008.3
20260503232214 75 235 1.7 2.6 0.00 0.00 0.00 23 1008.3
20260503231713 74 325 0.9 0.9 0.00 0.00 0.00 24 1008.5
20260503231208 75 333 2.6 5.2 0.00 0.00 0.00 21 1008.2
20260503230705 76 333 4.3 12.2 0.00 0.00 0.00 20 1008.3
20260503230202 75 271 1.7 4.3 0.00 0.00 0.00 23 1008.3
20260503225659 75 353 3.5 7.0 0.00 0.00 0.00 21 1008.3
20260503225154 76 356 6.1 7.8 0.00 0.00 0.00 21 1008.3
20260503224651 76 270 0.9 4.3 0.00 0.00 0.00 25 1008.5
20260503224149 77 354 1.7 5.2 0.00 0.00 0.00 22 1008.4
20260503223647 77 66 0.9 2.6 0.00 0.00 0.00 23 1008.5
20260503223143 77 249 2.6 2.6 0.00 0.00 0.00 22 1008.4
20260503222640 77 164 1.7 2.6 0.00 0.00 0.00 23 1008.1
20260503222138 77 258 0.0 0.9 0.00 0.00 0.00 23 1008.2
20260503221636 76 196 3.5 7.0 0.00 0.00 0.00 22 1008.4
20260503221133 76 269 2.6 4.3 0.00 0.00 0.00 22 1008.3
20260503220630 76 244 1.7 5.2 0.00 0.00 0.00 22 1008.5
20260503220126 77 250 3.5 5.2 0.00 0.00 0.00 21 1008.5
20260503215624 77 266 1.7 6.1 0.00 0.00 0.00 23 1008.5
20260503215120 76 264 2.6 5.2 0.00 0.00 0.00 23 1008.6
20260503214619 76 257 4.3 7.0 0.00 0.00 0.00 22 1008.6
20260503214115 77 266 2.6 7.0 0.00 0.00 0.00 21 1008.7
20260503213614 78 306 4.3 6.1 0.00 0.00 0.00 21 1008.3
20260503213110 78 206 1.7 4.3 0.00 0.00 0.00 21 1008.4
20260503212608 79 266 0.9 1.7 0.00 0.00 0.00 23 1008.5
20260503212105 79 258 2.6 5.2 0.00 0.00 0.00 22 1008.5
20260503211602 78 277 2.6 4.3 0.00 0.00 0.00 21 1008.3
20260503211057 78 284 2.6 5.2 0.00 0.00 0.00 23 1008.5
20260503210554 78 31 2.6 4.3 0.00 0.00 0.00 22 1008.6
20260503210050 77 255 1.7 4.3 0.00 0.00 0.00 23 1008.8
20260503205547 77 306 5.2 7.8 0.00 0.00 0.00 22 1008.8
20260503205043 77 238 2.6 7.8 0.00 0.00 0.00 23 1009.1
20260503204540 78 250 2.6 7.8 0.00 0.00 0.00 22 1009.1
20260503204038 78 269 4.3 9.6 0.00 0.00 0.00 22 1008.8
20260503203535 78 268 2.6 6.1 0.00 0.00 0.00 23 1008.8
20260503203032 78 253 2.6 7.8 0.00 0.00 0.00 22 1009.0
20260503202530 77 316 0.9 1.7 0.00 0.00 0.00 25 1009.2
20260503202027 76 236 1.7 7.0 0.00 0.00 0.00 26 1009.2
20260503201525 77 283 4.3 7.8 0.00 0.00 0.00 24 1009.3
20260503201022 77 253 0.9 1.7 0.00 0.00 0.00 26 1009.4
20260503200518 77 206 2.6 5.2 0.00 0.00 0.00 24 1009.1
20260503200015 76 234 2.6 5.2 0.00 0.00 0.00 24 1009.6
20260503195513 76 279 1.7 4.3 0.00 0.00 0.00 24 1009.4
20260503195009 77 198 2.6 6.1 0.00 0.00 0.00 24 1009.2
20260503194507 76 281 1.7 5.2 0.00 0.00 0.00 25 1009.4
20260503194006 76 292 2.6 6.1 0.00 0.00 0.00 24 1009.2
20260503193503 77 297 0.9 4.3 0.00 0.00 0.00 24 1009.4
20260503192958 77 235 0.9 2.6 0.00 0.00 0.00 25 1009.7
20260503192455 76 240 2.6 8.7 0.00 0.00 0.00 24 1009.7
20260503191950 76 261 2.6 6.1 0.00 0.00 0.00 25 1009.7
20260503191448 74 3 0.9 1.7 0.00 0.00 0.00 27 1009.5
20260503190944 73 245 0.9 1.7 0.00 0.00 0.00 27 1009.6
20260503190442 74 282 3.5 4.3 0.00 0.00 0.00 25 1009.5
20260503185938 74 339 1.7 2.6 0.00 0.00 0.00 26 1009.2
20260503185435 73 285 1.7 4.3 0.00 0.00 0.00 27 1009.5
20260503184934 72 247 1.7 4.3 0.00 0.00 0.00 27 1009.4
20260503184431 72 4 1.7 2.6 0.00 0.00 0.00 28 1009.5
20260503183927 72 269 2.6 4.3 0.00 0.00 0.00 27 1009.4
20260503183424 73 238 7.0 12.2 0.00 0.00 0.00 25 1009.8
20260503182921 73 244 1.7 6.1 0.00 0.00 0.00 28 1009.7
20260503182420 72 259 2.6 4.3 0.00 0.00 0.00 34 1009.4
20260503181917 71 298 2.6 2.6 0.00 0.00 0.00 38 1009.8
20260503181414 69 226 1.7 5.2 0.00 0.00 0.00 38 1009.5
20260503180910 71 268 4.3 7.0 0.00 0.00 0.00 37 1009.9
20260503180408 72 268 1.7 2.6 0.00 0.00 0.00 38 1009.8
20260503175904 75 263 0.9 2.6 0.00 0.00 0.00 33 1009.9
20260503175403 74 285 1.7 2.6 0.00 0.00 0.00 31 1009.8